Location: Freistadt
(48.5112°N, 14.5013°E)
Time: 22:05:15
(UTC+02:00)

VELOX 1 - Pass Details

Date: 28 February 2024
Orbit: 607 x 620 km, 98.4° (Epoch: 13 April)

Event Time Altitude Azimuth Distance (km) Brightness Sun altitude
Rises 20:01:54 0° 13° (NNE) 2,881 ? -23.6°
Reaches altitude 10° 20:04:05 10° 14° (NNE) 1,971 ? -23.9°
Enters shadow 20:07:12 48° 11° (NNE) 802 ? -24.4°
Exits shadow 20:13:44 - 197° (SSW) 2,420 ? -25.4°
Sets 20:14:46 0° 197° (SSW) 2,852 ? -25.6°
